Location: Observatoires du Mont Megantic
(45.4500°N, 71.1500°W)
Time: 20:48:34
(UTC-05:00)

Envisat - Visible Passes

Search period start: 19 February 2018 00:00
Search period end: 01 March 2018 00:00
Orbit: 764 x 766 km, 98.2° (Epoch: 19 February)

Date Brightness Start Highest point End Pass type
(mag) Time Alt. Az. Time Alt. Az. Time Alt. Az.
19 Feb 3.4 18:30:07 10° SE 18:34:51 42° ENE 18:39:37 10° N visible
19 Feb 4.9 20:09:46 10° SSW 20:14:00 26° W 20:18:16 10° NW visible
20 Feb 4.2 17:54:41 10° ESE 17:58:27 21° ENE 18:02:13 10° NNE visible
20 Feb 3.6 19:32:06 10° S 19:37:04 56° W 19:42:05 10° NNW visible
21 Feb 2.9 18:55:18 10° SSE 19:00:20 70° ENE 19:05:24 10° N visible
21 Feb 5.7 20:36:52 10° SW 20:39:52 16° W 20:42:53 10° NW visible
22 Feb 3.6 18:19:15 10° SE 18:23:47 34° ENE 18:28:20 10° N visible
22 Feb 4.6 19:58:15 10° SSW 20:02:48 33° W 20:07:21 10° NNW visible
23 Feb 3.2 19:20:52 10° S 19:25:54 70° WSW 19:31:00 10° NNW visible
24 Feb 3.0 18:44:17 10° SSE 18:49:14 56° ENE 18:54:13 10° N visible
24 Feb 5.4 20:24:59 10° SW 20:28:36 20° W 20:32:15 10° NW visible
25 Feb 3.9 18:08:29 10° ESE 18:12:44 28° ENE 18:17:01 10° N visible
25 Feb 4.2 19:46:49 10° SSW 19:51:35 41° W 19:56:23 10° NNW visible
26 Feb 3.0 19:09:41 10° SSE 19:14:46 87° WSW 19:19:53 10° NNW visible
26 Feb 5.9 20:53:06 10° WSW 20:54:32 11° W 20:55:58 10° WNW visible
27 Feb 3.3 18:33:20 10° SE 18:38:08 45° ENE 18:42:58 10° N visible
27 Feb 5.1 20:13:16 10° SSW 20:17:21 24° W 20:21:28 10° NW visible
28 Feb 4.1 17:57:48 10° ESE 18:01:43 23° ENE 18:05:38 10° NNE visible
28 Feb 3.8 19:35:28 10° S 19:40:24 51° W 19:45:22 10° NNW visible
